Starlink 11592

operational
NORAD ID: 63560 Int'l Des: 2025-075 Owner: SPXS Country: US Constellation: starlink
LEOCIRCULAR

Starlink 11592について

説明を読み込み中...

リアルタイム位置

3D地球を読み込み中...

次回通過

高度履歴

Altitude vs Time

uPlot chart will show altitude changes over time

軌道要素

1 63560U 25075N 25305.01980274 .00331280 00000-0 24758-2 0 9990
2 63560 43.0001 209.2474 0000580 202.3942 157.6900 15.70914438 33010
Epoch: Nov 1, 2025 • Age: 27 hours

現在のステータス

高度 364.7 km
速度 7.69 km/s
衛星直下点 -36.28°S, 54°E
打ち上げ日 Apr 13, 2025
運用期間 0.5 years
タイプ internet

技術仕様

分類 Payload
質量 960.00 kg
乾燥質量 910.00 kg
総質量 960.00 kg
長さ 0.30 m
直径 4.10 m
スパン 29.00 m
形状 Box + pan
製造者 SPXS
バスタイプ Starlink V2MD
フェーズステータス In Orbit
所有者/国 SPXS/US

大規模コンステレーション

Loading constellations...